Probability
1 1 0 0 0 0 0 0 0 0 0 0 0 0 0 0 0 0 0 0 0 0 1 2 3 3 2 2 3 2 0 0 0 0 0 0 0 1 2 2 4 5 4 1 0 0 0 0 0
1 0 0 0 0 0 0 0 0 0 0 0 0 0 0 0 0 0 0 0 0 0 1 2 3 3 3 3 3 2 1 1 1 1 0 0 0 0 1 1 3 3 2 0 0 0 0 0 0
0 0 1 2 1 1 0 0 0 0 0 0 0 0 0 0 0 0 0 0 0 0 1 1 1 2 3 3 3 3 3 2 2 2 1 0 0 0 0 0 1 1 0 0 0 0 0 0 0
0 1 2 3 3 2 1 0 0 0 0 0 0 0 0 0 0 0 0 0 0 0 0 0 0 1 3 3 3 3 3 3 3 2 1 0 0 0 0 0 0 0 0 0 0 0 0 0 0
0 1 2 3 3 2 1 0 0 0 0 0 0 0 0 0 0 0 0 0 0 0 0 0 0 1 2 3 3 2 2 3 3 2 1 0 0 0 0 0 0 0 0 0 0 0 0 0 0
0 1 2 2 2 2 1 0 0 0 0 0 0 0 0 0 0 0 0 0 0 0 0 0 0 1 2 3 2 1 1 1 2 1 0 0 0 0 0 0 0 0 0 0 0 0 0 0 0
1 2 3 3 2 1 0 0 0 0 0 0 0 0 0 0 0 0 0 0 0 0 0 0 0 1 2 2 2 1 1 2 2 2 1 0 0 0 0 0 0 0 0 0 0 0 0 0 0
1 2 3 2 1 0 0 0 0 0 0 0 0 0 0 0 0 0 0 0 0 0 0 0 0 0 1 1 2 2 2 3 4 3 2 1 0 0 0 0 1 1 0 0 0 0 0 0 0
1 2 3 2 0 0 0 0 0 0 0 1 1 1 0 1 1 0 0 0 0 0 0 0 0 0 0 0 1 1 1 3 4 3 3 2 0 0 0 1 2 2 1 0 0 0 0 0 0
2 3 3 2 0 0 0 0 0 0 0 1 2 2 1 2 2 1 0 0 0 0 0 0 0 0 0 0 0 0 1 2 3 3 2 1 0 0 0 1 2 2 1 0 0 0 0 0 0
3 3 3 2 0 0 0 0 0 0 0 2 3 2 1 2 3 2 1 0 0 0 0 0 0 0 0 0 0 0 0 1 2 2 1 1 1 0 0 1 1 1 1 1 1 1 1 1 0
2 2 2 1 0 0 0 0 0 0 1 2 3 2 1 1 2 2 1 0 0 0 0 0 0 0 0 0 0 0 0 1 1 1 1 1 1 0 0 0 1 1 2 2 2 2 2 2 1
1 1 1 1 0 0 0 0 0 1 2 3 3 1 0 0 1 1 0 0 0 0 0 0 0 0 0 0 0 0 0 0 0 0 0 1 1 0 0 0 0 2 3 3 3 3 3 3 3
0 0 0 0 0 0 0 0 0 1 2 3 3 1 1 0 0 0 0 0 0 0 0 0 0 0 0 0 0 0 0 0 0 0 0 0 0 0 0 0 0 1 2 3 3 3 3 3 3
0 0 0 0 0 0 0 0 0 1 2 3 3 2 1 0 0 0 0 0 0 0 0 0 0 0 0 0 0 0 0 1 1 1 1 1 1 0 0 0 0 0 1 2 2 2 2 2 1
0 0 0 0 0 0 0 0 0 1 2 2 2 1 1 0 0 0 0 0 0 0 0 0 1 1 0 0 0 0 1 2 2 2 2 2 2 1 0 0 0 0 0 1 1 1 1 0 0
0 0 0 0 0 0 0 0 0 0 1 1 1 0 0 0 0 0 0 0 0 1 1 1 3 3 1 1 0 0 1 3 3 3 3 3 3 2 1 1 1 0 0 0 1 1 1 0 0
0 0 0 0 0 0 0 0 0 0 0 0 0 1 1 1 1 1 1 0 1 2 3 4 5 5 3 2 1 1 2 3 3 3 4 4 4 3 1 1 2 1 0 0 1 2 1 0 0
0 0 0 0 0 0 0 0 0 0 0 0 0 1 2 3 2 2 2 1 1 2 4 6 7 5 4 3 3 3 3 3 4 4 5 6 5 4 2 2 3 2 1 0 1 2 2 1 0
0 0 0 0 0 0 0 0 0 0 0 0 0 1 2 2 2 2 2 1 1 2 5 6 5 4 3 3 3 3 3 4 4 5 6 6 6 5 3 3 3 2 1 1 2 3 2 1 0
0 0 0 0 0 0 0 0 0 0 0 0 0 0 1 1 1 1 1 1 0 2 4 6 5 4 3 3 3 3 3 3 4 5 6 6 6 5 5 4 3 2 2 2 3 3 3 1 0
0 0 0 0 0 0 0 0 0 0 0 0 0 0 0 0 0 0 0 0 0 1 4 5 5 4 4 3 3 3 3 3 3 4 6 6 6 6 4 3 2 3 3 3 3 3 2 1 1
0 0 0 0 0 0 0 0 0 0 0 0 0 0 0 0 0 0 0 1 2 2 4 5 5 4 3 3 3 3 3 3 4 4 6 6 6 4 2 1 2 3 4 3 3 3 1 1 0
0 0 0 0 0 0 0 0 0 0 0 0 0 1 1 1 1 1 2 3 4 6 6 5 5 4 3 3 3 3 3 4 4 5 6 6 4 2 1 0 1 2 3 3 3 2 1 0 0
0 0 0 0 0 0 0 0 0 0 0 0 1 2 2 3 4 5 5 5 6 8 9 7 6 5 4 4 3 3 3 4 4 5 6 6 4 3 1 0 0 1 2 3 2 1 0 0 0
0 0 0 0 0 0 0 0 0 0 0 0 1 2 3 4 5 7 7 6 7 9 11 9 8 7 6 5 4 3 3 3 4 4 6 6 6 4 2 2 1 0 1 2 1 0 0 0 0
0 0 0 0 0 0 0 0 0 0 0 1 2 3 4 4 5 5 6 6 7 10 12 11 10 9 8 6 5 4 3 3 3 4 5 6 6 4 3 2 1 1 1 1 0 0 0 0 0
0 0 0 0 0 0 0 0 0 0 1 2 3 5 6 5 5 5 5 5 6 9 11 11 10 10 9 8 7 6 4 4 3 4 5 6 5 4 3 1 1 1 1 1 0 0 0 0 0
0 0 0 0 0 0 0 0 1 2 2 3 4 5 6 5 5 5 6 5 5 7 9 10 10 10 10 9 8 7 5 5 4 4 6 6 4 3 2 1 0 0 0 0 0 0 0 0 0
0 0 0 0 0 0 0 1 2 3 3 3 4 4 4 5 5 6 6 6 5 6 7 8 9 10 10 9 8 7 6 6 5 5 6 6 4 2 1 0 0 0 0 1 1 1 0 0 0
Wind_Speed
8 6 3 1 4 5 2 2 1 2 2 2 3 4 4 2 1 1 1 2 3 2 1 3 6 7 8 8 9 9 9 9 10 10 10 11 10 10 10 11 12 12 13 13 13 13 13 13 13
6 5 1 2 5 3 2 2 2 2 2 2 4 4 4 3 2 2 1 2 3 2 2 3 6 7 8 8 8 8 9 9 9 9 10 10 10 10 10 11 12 12 13 13 13 13 13 13 12
6 3 2 4 3 2 1 0 3 4 3 2 3 4 3 2 2 2 2 4 3 2 2 3 6 7 7 7 8 8 8 8 9 9 9 9 10 10 11 11 11 12 12 13 12 12 12 12 12
3 1 3 4 2 1 2 2 4 4 3 4 3 4 3 2 2 3 4 4 4 2 2 3 6 6 6 7 7 8 8 8 8 8 8 8 9 10 11 11 11 12 12 12 12 12 11 12 12
1 3 5 4 2 2 2 3 2 3 2 3 4 4 3 4 4 6 5 4 4 2 2 3 5 6 6 6 6 7 7 8 8 7 8 8 9 10 10 10 11 11 11 11 11 11 11 11 11
3 4 4 2 2 2 3 3 3 5 4 3 4 4 2 2 4 5 5 4 3 3 3 2 4 5 5 5 5 6 6 7 7 7 7 8 9 9 9 9 10 10 10 10 9 9 9 9 9
3 3 2 1 1 1 2 2 3 4 4 3 3 4 1 1 3 5 4 4 3 3 3 2 2 2 4 4 5 5 6 7 6 7 7 8 8 8 8 8 8 8 8 8 8 8 8 7 7
3 4 2 1 1 1 3 3 2 3 3 4 4 5 3 2 4 6 5 5 4 3 3 2 2 2 1 1 4 5 5 6 6 6 7 7 7 7 7 6 7 7 7 7 7 7 6 6 6
3 4 1 2 3 2 3 3 2 3 5 3 3 3 4 7 7 6 5 4 3 2 2 2 2 2 1 1 2 3 5 5 5 5 6 5 3 3 3 5 6 6 6 6 6 6 5 5 5
4 2 3 3 4 4 5 4 4 4 4 4 5 6 8 8 7 6 4 3 2 1 1 1 1 1 2 1 2 2 2 3 3 3 3 2 2 2 3 3 4 4 4 4 4 4 5 3 2
3 4 2 2 4 6 6 4 3 6 2 4 7 9 9 8 6 5 4 3 2 1 1 1 0 1 2 2 2 2 2 2 3 3 3 2 2 2 2 1 2 2 2 2 3 3 2 2 2
3 1 2 3 4 5 6 5 4 3 3 5 9 11 9 8 7 6 5 4 2 2 1 1 1 1 2 2 2 2 2 2 1 2 2 2 2 2 1 1 1 1 1 2 2 2 2 3 3
3 1 2 5 6 5 6 5 4 1 4 8 9 9 8 8 6 5 4 3 3 3 2 2 2 2 2 2 1 2 2 1 1 1 2 2 2 2 2 1 1 1 1 2 2 2 2 2 3
2 4 5 4 5 3 6 3 3 2 6 8 8 7 6 7 6 4 4 4 4 3 3 2 2 2 2 2 1 1 2 1 2 1 1 2 2 2 2 2 1 1 1 2 2 2 2 2 2
4 6 5 3 3 2 6 3 1 4 8 7 6 6 5 5 5 6 6 5 5 4 3 3 3 3 3 2 2 2 1 1 1 1 1 2 2 2 2 2 1 1 1 2 2 3 2 2 3
4 5 2 1 2 3 5 2 2 6 8 6 5 5 5 4 5 5 5 4 4 4 3 3 3 4 3 2 2 2 2 1 1 1 2 2 2 2 2 2 1 1 2 2 2 2 3 3 3
4 2 1 1 2 3 3 3 2 6 8 7 6 5 5 4 4 4 5 5 5 5 4 3 3 3 3 3 2 2 2 2 1 1 2 2 2 2 3 2 2 2 2 2 2 3 3 3 3
3 2 2 3 2 3 3 3 3 7 8 7 6 5 5 6 6 5 5 5 5 4 4 3 3 3 4 3 2 2 2 1 1 1 1 2 2 2 3 2 2 2 2 2 2 3 3 3 3
5 4 2 2 2 3 3 3 4 6 7 7 6 6 7 7 5 4 4 5 5 4 4 4 4 4 4 2 2 2 1 1 1 1 1 2 2 2 2 2 2 2 2 2 3 3 4 3 3
4 3 1 0 1 2 1 2 4 7 9 9 9 9 8 6 4 4 5 5 5 5 5 5 4 4 4 3 2 2 2 1 1 1 1 1 2 2 2 2 2 2 2 3 3 3 3 2 1
2 5 4 3 2 3 2 3 2 3 4 5 6 7 7 9 8 6 6 5 5 5 6 6 5 5 4 4 3 3 2 2 1 1 1 1 1 1 2 2 2 2 3 3 3 3 4 2 1
3 4 5 5 4 1 1 2 6 3 4 6 7 7 8 8 7 7 7 6 7 7 5 5 5 5 4 5 4 4 3 2 1 1 1 1 1 1 2 2 2 2 2 3 3 3 2 3 2
4 3 5 4 4 2 2 1 7 1 5 8 9 9 9 9 9 9 9 8 7 6 6 5 5 4 4 5 5 4 2 2 1 1 1 1 1 1 1 2 2 2 2 3 3 3 2 2 2
6 7 7 6 5 1 2 2 7 5 8 7 8 9 9 9 9 8 7 6 6 6 6 5 5 4 4 5 5 4 4 4 3 2 1 1 0 1 0 1 1 2 2 3 3 3 3 3 3
5 7 4 4 4 4 2 2 9 7 6 8 9 9 9 9 8 8 8 8 8 8 7 7 6 5 5 5 5 4 5 5 5 3 3 2 1 1 1 1 1 1 2 2 2 3 3 3 3
5 9 8 5 4 4 1 5 9 5 4 4 5 5 6 8 8 9 9 9 9 9 8 7 7 6 5 5 5 4 4 4 3 3 3 3 2 2 1 1 1 1 2 2 2 2 2 2 2
6 3 6 8 3 0 4 6 9 3 2 1 2 4 6 7 8 8 8 8 9 9 9 9 8 6 5 5 4 4 4 4 3 3 3 2 2 2 2 2 2 1 1 2 2 2 2 2 2
6 9 6 7 6 2 4 4 5 5 4 3 3 5 5 6 6 7 7 8 8 8 8 8 7 7 6 5 5 5 4 4 4 3 3 3 2 2 2 2 2 1 1 2 2 1 1 2 1
4 4 6 5 5 7 3 8 7 7 6 6 6 6 6 7 7 7 6 6 6 6 7 8 7 6 6 6 5 4 4 4 3 3 3 3 2 2 2 2 2 2 1 2 2 2 2 2 1
4 6 8 6 4 4 4 8 4 4 4 5 5 5 5 5 6 6 6 6 6 7 7 8 7 7 7 6 5 4 4 4 4 4 3 3 2 2 2 2 2 2 2 2 2 2 2 2 2
Wind_Direction
155 145 143 119 53 48 11 337 50 45 46 44 69 82 93 80 125 171 300 118 115 111 116 128 115 110 110 112 111 110 112 112 110 109 109 111 109 113 114 115 114 113 112 113 114 112 113 113 113
147 156 153 62 72 51 330 343 59 57 115 117 70 66 66 56 56 105 121 130 120 130 118 120 116 115 115 114 112 110 109 109 108 106 102 108 108 113 114 114 113 112 111 113 114 113 115 115 115
162 179 90 67 78 148 221 44 101 85 83 54 59 56 68 68 97 150 163 133 108 109 117 136 125 120 120 116 116 114 112 112 109 107 105 106 108 108 112 111 113 112 112 113 114 113 114 115 117
159 77 57 62 42 237 188 164 128 115 60 43 73 58 43 46 130 146 132 123 114 119 123 141 132 126 125 121 121 123 125 123 117 114 112 110 110 110 112 114 115 114 114 114 115 114 113 115 118
96 78 54 37 1 3 86 124 115 100 75 59 71 72 31 5 81 112 118 119 120 114 113 131 137 131 126 123 124 128 127 125 120 118 116 114 114 114 115 117 117 116 115 115 115 115 113 114 116
62 66 68 32 6 35 71 90 100 90 92 86 81 75 37 36 88 114 110 104 110 105 85 98 137 135 128 125 125 126 128 126 122 122 120 118 118 117 118 118 119 119 118 118 118 116 114 115 118
94 82 97 104 62 64 123 88 89 103 98 103 109 89 66 39 104 110 96 91 87 83 76 53 53 101 126 134 133 129 130 130 125 123 121 122 123 123 122 123 124 123 122 121 121 119 120 118 119
133 95 64 70 128 124 125 98 78 94 102 110 100 122 168 177 109 93 81 78 74 66 57 48 35 33 46 113 139 129 131 132 128 127 127 124 124 126 125 123 126 126 126 125 127 127 126 119 118
112 73 118 190 166 161 125 108 101 75 100 89 81 119 137 123 111 97 82 68 67 75 38 38 39 29 30 86 132 113 119 124 124 129 127 114 97 99 112 122 132 131 130 129 130 132 126 118 115
102 118 214 194 166 148 136 125 132 96 97 83 77 84 108 123 128 128 131 133 135 132 52 38 38 28 28 78 80 64 71 80 81 93 99 90 92 94 101 115 125 129 127 126 125 126 122 111 99
141 178 206 130 139 129 127 120 109 120 133 160 145 139 135 140 144 152 159 161 179 172 136 98 47 46 57 59 70 63 61 66 74 92 101 104 94 92 80 84 83 82 94 90 97 93 97 110 113
136 232 153 129 124 123 133 124 109 141 187 154 145 143 143 152 164 171 172 174 157 143 167 134 111 85 74 75 73 73 70 65 77 103 113 112 110 107 106 102 86 74 82 91 88 94 97 103 113
91 64 73 98 101 105 102 104 121 111 104 116 124 133 148 161 172 176 172 164 152 159 168 153 133 124 105 98 85 90 88 85 86 86 97 113 118 117 108 104 99 100 104 106 102 99 100 98 103
106 82 72 78 88 88 102 89 91 133 123 125 136 147 161 169 170 163 162 166 170 177 171 150 147 145 122 119 121 100 89 86 86 77 79 103 114 118 114 99 87 90 105 106 107 106 99 95 97
83 75 50 48 81 106 101 62 190 155 134 141 153 158 166 179 174 178 182 180 181 179 164 158 160 140 135 138 139 112 91 90 88 78 78 102 118 131 123 108 98 89 96 96 94 94 90 93 93
62 71 76 276 110 130 117 224 221 151 146 159 171 173 177 189 193 193 185 181 179 170 165 174 166 145 146 137 124 107 95 99 95 90 92 108 122 131 120 115 105 94 94 101 109 106 96 92 95
44 104 174 234 174 144 140 222 200 159 159 173 185 188 188 193 203 202 187 181 177 175 168 159 150 141 139 121 101 92 92 95 93 97 99 102 118 125 122 121 113 104 97 97 111 101 108 108 101
195 173 191 207 207 148 171 224 190 176 176 184 190 192 193 200 209 197 186 177 169 166 158 152 138 126 113 96 84 73 72 71 73 85 102 109 105 112 119 118 113 109 100 93 100 103 99 109 110
158 159 191 222 193 156 199 215 199 190 188 192 197 199 203 210 209 182 174 166 154 155 153 152 144 140 129 117 111 102 86 68 79 86 102 120 116 117 125 126 109 106 110 114 115 110 104 94 102
139 149 192 24 130 145 194 263 222 200 202 199 199 202 203 200 191 186 172 165 167 169 168 162 161 157 156 144 131 128 120 99 85 72 77 101 126 136 141 140 132 126 120 114 114 114 109 107 105
179 183 186 164 82 55 75 330 253 229 219 206 204 199 196 194 192 191 180 178 173 178 179 178 175 168 162 146 114 93 73 57 59 74 71 60 97 111 115 135 138 137 137 137 140 140 136 142 122
228 211 158 136 116 348 100 280 283 238 236 220 213 205 204 199 190 186 181 183 185 188 180 174 171 168 162 151 147 148 152 164 188 160 131 71 85 111 132 140 142 143 142 145 157 142 141 139 148
191 122 114 110 112 69 19 162 287 263 240 237 222 213 206 196 190 191 189 186 187 181 175 172 165 167 163 162 164 159 159 164 130 109 112 75 38 51 100 136 142 149 155 158 155 144 145 144 152
123 76 59 53 68 32 247 174 278 231 223 230 222 214 205 195 192 193 187 171 173 170 169 166 166 174 169 168 166 167 170 164 151 154 155 129 56 24 53 141 146 154 159 166 165 162 160 159 157
98 94 49 15 15 258 236 200 255 250 228 217 218 211 201 192 187 185 181 179 176 173 175 173 172 179 175 172 175 177 176 173 176 177 175 169 177 204 221 166 158 166 168 167 158 160 169 168 171
167 138 152 177 209 269 276 236 258 272 260 231 212 197 189 188 187 188 187 186 184 180 177 173 178 184 180 179 182 175 171 173 181 183 175 181 195 207 202 170 174 182 165 159 151 157 175 168 177
139 160 156 128 138 152 275 285 300 301 310 277 178 173 187 190 187 188 186 185 183 179 179 179 179 181 183 183 176 173 177 178 182 181 176 182 194 197 184 177 175 175 163 155 150 159 169 163 179
137 142 106 118 142 214 280 270 255 263 248 234 201 195 196 188 182 182 184 186 183 180 177 175 178 181 178 175 180 184 187 187 179 170 181 181 187 186 181 184 180 176 153 147 145 146 151 148 171
111 100 106 114 146 155 218 263 231 223 214 204 210 202 191 186 183 182 182 182 177 169 169 174 175 173 176 179 180 181 183 180 175 176 187 183 180 184 192 181 179 179 164 150 139 138 134 140 144
149 156 145 147 192 170 173 260 277 226 213 197 204 200 187 182 179 175 170 165 169 173 176 178 178 181 184 177 170 179 171 165 175 186 192 179 181 186 193 181 171 181 182 159 153 156 145 148 154